CBERS 1 DEB, 30792

Orbit data source: Space-Track

CBERS 1 DEB, 30792 is space debris in SSO originally from a launch on Thu, 14 Oct 1999 UTC launched from the Taiyaun Space Center, China (TSC). Debris objects in space refer to the collection of defunct objects orbiting the Earth. Examples of debris include non-operational satellites, rocket bodies, and fragments generated from explosions, collisions, or faulty payload assembly.

Loading next visibility...
Identifier
30792, 1999-057PB
Orbit
SSO
Country
Flag of UnknownUnknown / CHBZ
Related business
Manufacturer
Unknown
Mission
Spacecraft
Bus & Motor
Unknown
Mass
Unknown
Launch date (UTC)
1999-10-14 (26 years ago)
Launch vehicle
Unknown
Launch site
Taiyaun Space Center, China (TSC)
Object type
Payload
Rocket body
Debris
Shape & HBR
Unknown shape, 0.1 m
Radar Cross Section
Small (<0.1 m²)

Expand to show TLE details & history
Last TLE update: 10 hours ago

TLE from 10 hours ago
0 CBERS 1 DEB
1 30792U 99057PB  25349.96958611  .00000265  00000-0  10457-3 0  9992
2 30792  98.8459 349.9531 0007086 158.3335 256.0793 14.37306960985204
Epoch: 2025-12-15T23:16Z
TLE epoch observation values (Epoch: 2025-12-15T23:16:12.239Z)
Latitude
53.49668°
Longitude
-96.03241°
Altitude
777.365 km
Speed
7.47 km/s
True Right ascension
22h 31m 30s
True Declination
53° 19' 57"
Sunlit
Object was in daylight at epoch
Visualization orbit readout
Latitude
Unknown
Longitude
Unknown
Altitude
Unknown
Speed
Unknown
Apparent Right ascension
Unknown
Apparent Declination
Unknown
Sunlit
N/A
Visualization observer readout
Local Sidereal Time
07:54:29
Azimuth
Unknown
Elevation
Unknown
Doppler factor
Unknown
Orbital elements
Apogee altitude
769.614 km
Perigee altitude
759.491 km
Semi-major axis
7,142.689 km
Eccentricity
0.00071
Inclination
98.8459°
RAAN
349.9531°
Arg. of periapsis
158.3335°
True anomaly
256.0005°
Mean anomaly
256.0793°
Eccentric anomaly
256.0399°
Mean motion
3.59543 °/min
Orbital period
100.13 mins
BSTAR
0.00010457
Loading maneuver chart data...
Computing Atmospheric mass density...
Loading historical data...
Loading historical data...
Loading historical data...
Loading historical data...
Loading historical data...
Loading historical data...
Loading historical data...

Documentation

Showing up to 5 results
|